Theta_e
316 318 320 321 322 325 327 329 328 325 323 317 318 318 317 322 322 322 321 320 320 319 320 320 320 320 320 319 319 317 319 320 320 324 328 334 336 336 332 332 341 341 344 344 342 342 343 344 343 344 343 343 343 342 341 341 341 341 340 339 338 337 338 339 340 340 340 339 339 339 337 337 336 336 336 338 337 337 337 337 337 337 337 337 336 335 333 331 331 329 326 325 322 321 320 320 317
317 319 321 323 322 327 333 330 325 320 318 316 317 318 318 323 322 321 321 319 319 319 320 319 319 319 320 320 319 319 319 320 322 326 330 332 333 334 332 336 341 341 343 344 342 342 343 344 343 344 343 343 343 342 342 341 340 341 340 340 339 338 338 338 339 340 340 339 338 338 337 337 335 335 335 336 336 336 336 336 337 336 336 336 336 335 334 331 329 326 324 322 320 319 319 320 315
318 319 322 324 324 328 332 328 322 315 315 316 316 319 321 322 321 320 319 319 319 319 320 320 320 319 320 320 319 319 320 323 325 324 330 331 332 334 331 335 342 341 343 344 341 341 344 344 343 344 343 343 343 342 342 341 340 340 340 340 340 339 339 338 339 339 340 338 337 337 336 335 333 333 333 334 335 336 336 335 335 335 335 335 336 336 334 331 327 325 325 324 321 319 317 313 308
320 322 324 324 330 330 330 329 323 317 314 314 315 320 322 321 321 319 319 319 320 320 319 320 319 319 319 319 318 319 319 324 329 328 333 333 334 336 331 333 340 341 343 343 341 342 344 343 343 344 343 344 343 343 342 341 340 340 340 340 340 340 339 339 338 339 338 338 338 336 333 332 333 333 332 331 332 334 335 334 334 334 335 335 335 334 333 330 327 326 327 327 323 320 313 304 301
322 326 325 325 332 329 326 325 322 320 316 316 315 320 321 319 320 318 319 319 318 318 318 319 317 318 318 319 320 321 321 323 330 331 335 334 335 338 335 335 338 341 343 342 342 343 344 343 343 344 344 344 343 343 342 342 341 341 340 340 340 340 339 339 338 338 338 337 338 336 333 332 334 334 332 330 328 331 333 333 333 334 335 335 335 332 332 330 327 326 327 326 323 319 310 299 300
323 325 325 325 329 325 324 320 317 319 319 320 317 319 320 317 319 317 318 317 317 317 317 318 317 318 318 320 321 324 326 324 328 332 334 334 334 338 339 338 338 340 342 342 343 342 343 343 343 343 344 344 344 343 343 342 341 341 341 341 340 339 339 338 338 338 337 337 337 336 334 332 333 334 333 330 328 329 332 332 333 333 334 335 334 331 332 330 327 326 326 324 320 318 308 298 300
322 326 328 328 327 325 327 320 317 319 320 321 318 318 319 317 319 317 317 316 317 316 316 318 317 317 318 321 321 323 328 327 330 333 334 333 333 337 339 338 337 340 341 343 343 342 344 343 343 343 344 344 344 343 343 342 342 342 341 341 340 339 339 338 338 338 338 337 336 336 335 333 333 334 333 331 330 330 332 332 332 332 332 333 331 331 333 329 325 324 323 320 316 316 307 298 299
324 328 330 329 329 325 326 322 319 320 319 320 319 319 318 317 319 318 317 316 316 316 316 317 317 317 317 320 319 321 326 328 331 333 335 333 330 333 339 340 338 340 341 342 343 343 343 343 342 342 343 344 343 343 342 342 342 341 341 341 340 339 338 337 338 338 337 336 335 335 335 334 334 335 335 333 331 331 332 332 332 332 331 330 330 332 331 327 324 323 320 316 314 315 307 298 299
325 328 329 329 329 322 321 321 319 319 320 320 318 318 318 318 318 318 317 316 316 316 316 316 316 317 318 320 318 319 322 327 330 331 334 333 331 331 334 340 340 340 341 342 342 341 341 342 341 341 343 343 344 343 343 342 341 341 341 340 340 338 337 336 336 336 337 336 335 334 334 334 334 335 336 335 333 333 333 333 332 332 330 330 332 332 329 327 325 321 317 314 312 313 307 298 299
325 326 327 328 324 318 317 319 319 320 320 320 317 317 317 317 318 318 317 316 317 317 316 317 317 316 318 319 318 318 319 323 327 330 332 332 335 334 331 334 339 340 340 341 341 340 339 339 340 342 343 342 343 343 343 342 342 342 341 340 340 339 337 336 334 334 335 336 335 334 334 334 334 335 335 336 334 334 334 334 333 332 330 331 332 330 329 329 327 322 317 314 312 311 307 299 298
326 325 325 326 320 315 316 318 320 322 320 319 318 317 317 317 318 317 317 317 317 317 317 317 317 315 317 318 316 315 315 318 323 329 332 331 333 335 333 330 334 338 338 340 339 339 339 337 339 342 342 342 342 342 342 343 343 342 342 341 340 339 337 336 335 334 334 335 335 335 334 334 335 335 335 335 335 334 334 334 333 332 331 332 332 330 330 329 327 323 318 315 312 310 307 301 299
326 327 325 323 320 318 319 321 321 321 320 319 318 317 318 317 318 317 317 317 317 318 317 317 317 316 317 318 316 314 312 313 318 325 331 331 330 333 333 329 330 334 335 337 337 338 340 339 338 340 342 342 342 341 341 342 342 342 342 342 340 339 338 336 335 334 333 334 335 336 336 335 334 335 335 334 335 335 334 334 333 332 331 331 331 330 329 329 327 323 318 316 314 311 307 302 299
328 329 324 321 324 324 321 321 322 323 321 319 318 317 317 317 317 318 317 318 317 317 316 316 317 316 317 317 316 314 312 312 313 321 328 329 329 330 329 328 330 332 334 335 335 336 339 339 338 339 340 340 340 340 340 341 341 341 342 341 340 339 338 337 336 334 332 332 334 335 334 334 334 334 334 334 334 334 334 334 334 332 331 331 331 330 329 329 327 321 318 317 316 313 308 304 300
329 326 323 323 326 324 321 322 322 321 319 319 317 316 317 317 317 318 317 317 316 316 315 316 315 316 316 316 317 314 312 312 312 317 325 327 327 326 325 326 329 331 332 333 333 334 337 338 339 339 338 339 338 338 339 340 341 340 341 341 340 339 338 337 336 334 331 330 332 333 333 333 333 333 333 333 333 334 334 334 334 333 331 331 331 330 329 329 326 321 318 318 317 316 310 305 301
327 325 323 324 321 319 322 325 323 320 318 318 317 316 317 316 317 317 317 317 316 316 315 315 315 316 317 317 317 314 311 312 313 315 322 325 323 323 323 323 324 326 326 326 328 331 334 335 338 339 339 340 338 337 337 337 338 339 340 340 339 339 339 338 337 335 332 330 330 331 332 332 332 332 333 333 333 334 335 334 334 333 332 331 331 330 329 328 326 322 320 319 318 317 314 310 303
323 324 325 321 318 317 320 324 323 320 318 318 316 317 317 316 317 317 316 316 316 316 316 315 315 315 315 315 314 312 311 312 314 316 320 323 322 320 321 321 320 321 322 321 322 324 328 331 335 338 338 340 339 339 339 338 338 337 338 338 339 338 339 339 338 336 334 332 330 330 330 331 332 331 332 332 332 333 334 334 333 333 332 331 331 330 329 328 327 323 321 320 319 318 317 315 307
322 324 323 319 317 316 319 322 321 319 318 318 316 317 317 317 317 316 316 316 316 316 315 314 313 313 312 312 312 311 312 313 315 317 318 320 320 319 318 319 319 319 320 320 319 320 322 324 330 334 336 338 339 340 340 340 340 339 338 337 338 338 338 338 338 337 335 334 332 331 330 330 330 332 333 333 333 333 333 333 331 332 332 332 331 330 329 328 327 324 322 322 321 319 319 318 313
324 326 321 318 320 319 319 321 320 320 319 318 317 317 318 317 317 317 316 316 316 315 314 313 312 312 311 311 312 312 313 314 315 316 317 317 317 317 317 318 318 318 318 318 318 318 319 320 323 327 332 336 337 339 339 339 340 339 339 337 337 337 337 337 337 337 335 335 334 332 330 330 332 334 335 335 334 333 333 332 331 331 331 331 331 330 329 328 327 325 324 324 322 321 320 319 318
324 326 321 319 322 321 320 319 319 320 319 318 318 317 317 318 317 316 316 317 317 315 314 315 313 312 312 311 312 312 312 314 315 316 316 316 316 316 316 316 317 317 317 318 318 317 317 319 320 321 327 333 335 337 338 338 339 338 338 338 337 337 336 336 336 337 336 336 336 335 331 332 335 335 336 335 335 334 332 331 331 331 330 331 330 330 329 329 328 325 325 325 323 322 321 319 318
322 323 322 320 321 320 319 319 318 318 319 318 318 317 317 317 318 316 316 317 317 316 315 316 316 314 312 311 312 312 313 313 314 315 315 315 315 315 315 315 316 316 316 317 317 318 317 317 319 320 324 331 334 336 337 336 337 338 338 339 339 338 337 337 337 338 337 337 337 337 334 335 336 335 335 335 334 333 332 331 331 331 330 330 330 330 329 329 328 327 326 325 324 323 322 321 319
322 321 321 319 318 319 317 318 317 317 317 317 318 317 316 317 317 316 316 317 317 316 315 315 315 313 312 311 311 312 312 313 313 314 314 314 315 314 314 314 315 316 316 316 317 318 318 316 317 319 321 329 333 334 336 336 336 337 338 338 338 338 338 338 338 337 337 336 336 336 335 335 335 334 334 335 334 333 333 332 332 331 331 330 330 330 330 330 329 328 327 325 325 324 323 322 320
321 319 319 318 318 319 317 317 317 317 316 317 317 316 316 317 316 316 316 317 317 314 312 312 312 311 311 311 311 312 312 312 312 313 313 313 314 314 313 313 314 315 315 316 316 317 317 316 318 318 318 326 332 333 335 336 336 336 337 337 337 337 337 337 337 336 336 335 336 335 335 336 335 334 334 334 333 333 334 333 332 332 331 331 330 330 330 330 330 329 327 326 325 324 323 322 321
320 319 318 318 318 318 317 317 316 316 316 316 316 316 316 317 316 316 317 317 314 311 311 310 310 310 310 310 311 311 311 311 312 312 313 312 313 313 313 313 313 314 315 315 316 316 316 317 320 319 317 324 331 331 333 335 335 336 336 337 336 335 336 335 335 335 334 335 335 335 334 335 335 334 334 334 333 333 333 332 332 332 331 331 330 330 330 330 329 329 328 327 326 325 323 322 321
320 319 318 317 317 317 317 317 316 315 316 316 316 316 316 316 316 316 317 314 310 309 309 309 309 310 310 310 310 310 310 310 311 312 312 312 312 313 312 312 312 313 315 315 315 316 317 319 322 320 319 326 331 330 332 334 335 336 335 335 335 335 334 334 333 333 334 334 334 334 333 334 334 334 333 333 333 332 331 331 331 331 331 330 330 330 330 330 329 329 328 327 325 324 323 322 321
319 319 318 317 316 317 317 317 316 315 315 316 316 315 316 316 315 316 315 311 309 309 309 309 309 309 309 310 309 309 310 310 310 311 312 311 311 312 311 311 312 313 314 316 316 317 318 320 322 322 323 327 330 330 332 333 334 335 334 333 333 333 332 332 332 332 332 332 332 332 332 332 333 333 333 332 332 331 331 331 330 330 330 330 330 330 329 329 329 328 328 327 325 324 323 322 321
318 318 317 317 317 317 317 316 316 316 316 316 316 315 316 315 315 315 314 310 309 309 309 309 309 309 309 309 309 309 309 309 310 310 311 310 310 310 310 310 311 313 314 316 317 317 319 321 323 325 326 328 329 330 332 332 334 333 333 332 331 331 330 330 331 331 330 330 330 330 330 330 330 331 331 331 331 330 329 329 329 329 329 329 328 328 328 327 327 328 327 327 325 324 323 323 321
317 317 317 317 317 318 318 317 317 317 316 316 315 316 316 314 315 316 313 309 309 309 309 309 309 309 309 309 309 309 309 308 309 309 310 309 309 309 309 309 311 313 316 316 316 317 319 321 323 325 328 329 330 330 331 331 332 331 330 330 329 329 328 329 329 329 329 329 329 329 329 329 329 330 330 330 330 328 328 328 328 328 328 327 327 327 326 326 326 327 327 327 325 324 324 323 322
316 316 317 318 318 318 318 317 317 317 316 316 315 315 315 313 314 316 312 309 309 309 309 309 310 309 309 309 309 308 308 308 308 308 308 308 308 307 308 310 311 314 315 314 315 317 319 322 324 325 327 329 330 329 329 330 329 329 328 328 327 326 326 327 326 326 327 327 327 327 328 328 328 328 328 329 328 327 327 327 327 327 326 326 326 326 326 326 326 326 325 325 324 324 324 323 322
316 316 317 318 319 318 319 318 318 317 315 315 315 316 316 314 314 314 311 309 310 310 310 310 310 309 309 309 309 308 308 308 308 307 307 307 307 306 307 311 312 313 314 313 314 316 318 321 323 325 326 327 328 327 327 327 326 326 326 326 325 325 325 325 323 324 325 326 327 326 326 326 325 326 326 326 326 326 326 326 325 325 324 324 324 324 323 324 324 323 323 323 323 323 322 322 321
317 317 317 319 320 319 320 318 316 316 315 314 315 318 319 316 314 311 310 310 310 311 310 310 310 309 309 309 309 309 308 307 307 306 306 306 306 305 307 310 311 312 313 313 315 315 316 318 320 323 325 326 326 326 326 325 325 325 324 324 324 324 323 323 322 323 324 325 326 325 325 325 324 323 324 324 324 324 325 324 324 323 322 322 322 321 321 322 322 321 320 320 320 321 320 320 321
317 318 319 320 320 320 319 317 316 315 315 314 315 318 319 315 312 310 310 310 310 311 311 310 310 309 309 309 309 309 307 306 306 305 306 304 304 305 306 308 310 311 312 312 313 313 314 316 318 320 323 323 323 323 324 324 324 324 323 322 322 322 322 322 322 322 323 323 323 323 323 322 322 321 322 322 322 321 321 321 320 320 319 321 321 319 319 319 319 319 319 318 317 316 316 316 316
318 319 321 322 321 320 318 316 316 316 314 313 315 318 319 315 312 311 310 310 311 312 312 311 310 309 309 309 309 308 307 306 305 305 305 304 303 304 306 308 310 311 311 311 311 311 313 314 316 320 321 321 322 320 320 322 323 321 321 321 321 320 320 320 319 319 320 319 319 319 319 319 318 318 318 318 318 317 316 315 314 314 315 317 317 316 316 315 315 315 314 313 311 310 310 310 310
321 321 321 322 322 320 318 317 317 317 314 313 316 318 318 316 313 311 310 311 311 312 313 311 310 309 309 309 309 308 307 306 305 304 304 304 303 303 306 309 310 311 310 309 310 311 312 312 315 319 319 319 320 320 319 319 319 319 320 319 318 318 317 316 316 316 316 315 315 314 314 314 313 313 313 313 313 311 310 310 309 309 309 310 310 310 310 310 310 310 309 307 305 305 305 305 306
323 322 322 322 322 320 318 318 317 317 316 315 315 316 317 317 314 311 311 311 311 312 313 312 311 310 309 309 309 308 308 307 305 304 304 304 303 303 307 309 309 310 310 309 310 310 311 311 313 316 316 316 317 318 317 317 316 317 317 316 315 315 314 312 312 313 313 312 312 311 311 311 310 309 309 309 309 307 307 306 306 306 307 307 307 307 307 307 307 306 306 304 301 300 300 301 304
321 322 322 322 322 321 320 319 318 317 317 316 317 316 317 318 314 311 310 310 311 311 313 313 311 310 310 309 309 309 309 307 304 303 303 303 303 303 305 307 308 309 309 309 309 309 310 310 310 310 312 313 314 314 314 314 314 314 313 311 312 312 311 310 311 311 310 311 311 310 311 310 309 308 307 307 307 306 306 305 305 305 305 306 305 305 306 306 305 304 303 299 295 295 295 298 302
321 322 322 322 321 320 321 319 317 317 317 317 319 318 318 319 316 312 311 311 311 311 313 314 312 310 310 309 309 310 310 306 303 303 303 303 303 303 304 306 307 307 308 308 307 307 308 308 308 308 308 309 310 310 310 311 311 309 308 308 308 307 307 308 308 307 307 308 308 308 309 308 307 307 306 306 305 304 303 301 301 301 301 302 302 303 303 304 304 303 301 297 293 292 292 294 298
321 322 323 322 320 320 321 319 317 316 319 319 320 321 320 321 319 314 312 311 312 312 313 314 312 311 310 310 309 310 309 305 303 303 303 303 303 303 304 306 306 305 307 307 306 307 307 307 308 307 306 306 306 306 306 307 306 305 305 304 303 301 303 304 303 303 304 303 304 304 304 304 304 304 303 302 300 299 297 296 295 295 295 296 297 299 301 303 303 302 299 297 294 293 291 291 293
321 322 322 322 321 321 321 319 317 316 320 320 320 322 320 321 322 317 313 312 312 312 313 314 312 311 310 310 310 309 307 304 303 302 302 303 303 303 304 305 305 305 305 306 306 307 307 307 307 305 305 305 304 304 303 303 302 302 302 300 299 299 299 301 300 299 300 300 300 301 300 300 300 299 298 297 295 294 293 292 291 291 291 291 292 294 296 298 299 298 296 295 294 294 292 290 291
322 322 322 323 322 322 322 318 316 316 319 321 320 321 320 320 321 319 314 312 312 312 313 313 312 311 310 310 310 308 306 304 304 303 302 303 303 303 303 303 304 304 305 306 306 306 306 306 305 304 304 304 303 302 302 301 300 301 301 300 299 298 296 296 297 296 297 297 297 296 296 296 295 295 294 293 292 292 291 290 290 290 290 290 290 290 291 291 292 293 293 292 292 293 292 291 290
323 322 322 323 322 323 323 318 316 316 317 319 320 320 319 319 320 320 316 313 313 314 314 315 314 312 311 310 309 308 306 305 304 303 302 303 303 302 302 302 303 303 304 305 304 305 305 304 304 304 304 303 302 301 302 302 301 300 300 299 298 296 293 293 293 293 293 293 292 292 291 291 291 291 291 291 291 291 290 290 290 289 289 289 289 289 289 289 289 289 291 291 290 291 291 290 290
324 324 323 323 323 323 324 321 319 318 317 318 319 321 322 320 320 321 318 316 316 315 315 316 315 313 312 312 310 308 306 305 304 303 303 303 303 302 302 302 302 302 303 303 303 303 304 303 302 303 303 302 302 301 302 302 301 299 297 295 294 292 291 290 290 290 289 289 289 289 289 289 290 290 290 290 290 290 289 289 289 289 288 288 288 288 288 288 288 288 288 289 290 289 289 289 289
323 325 323 322 323 323 325 325 323 324 325 321 319 327 330 325 323 322 319 317 316 313 312 313 312 312 312 311 310 308 307 306 304 303 302 302 303 302 302 301 302 302 302 302 302 302 302 301 301 302 302 302 301 300 300 300 299 296 294 293 291 291 290 289 289 288 288 288 288 288 289 289 289 289 289 289 289 289 288 288 288 288 287 287 287 287 287 287 287 287 287 287 288 288 288 288 288
322 328 328 323 322 324 326 326 326 329 329 322 320 329 330 325 324 324 319 316 315 313 312 312 310 310 310 309 308 308 307 306 304 303 302 302 302 301 301 301 301 301 301 301 300 301 301 300 300 300 300 299 298 297 297 297 296 294 293 292 291 290 289 289 288 288 288 288 288 288 288 288 288 288 288 288 288 288 288 287 287 287 287 287 287 287 286 286 286 286 286 286 286 287 287 288 288
326 329 330 325 322 325 326 325 328 329 327 324 322 325 327 325 324 322 319 316 315 314 312 311 310 309 308 308 307 307 307 305 304 304 303 301 301 301 301 301 300 300 300 299 299 300 300 299 299 298 298 297 296 296 296 296 295 295 293 292 290 290 289 289 288 287 287 287 287 287 287 287 287 287 287 287 287 287 287 287 287 287 287 286 286 286 286 286 286 286 286 286 286 286 286 287 288
327 327 326 326 325 326 325 326 328 327 326 327 325 324 328 327 324 322 320 318 317 315 313 311 309 309 308 307 306 306 306 305 304 303 302 301 301 301 301 300 299 299 299 298 299 299 299 298 298 298 297 296 296 296 296 296 295 294 292 291 290 289 289 288 288 287 287 287 287 286 287 287 287 287 287 287 286 287 287 286 287 286 286 286 286 286 286 286 286 286 286 286 286 285 285 286 287
325 326 325 325 325 324 324 325 326 326 326 327 326 325 328 328 326 324 321 320 320 317 315 312 309 309 308 307 306 305 304 304 303 302 301 301 301 301 300 298 298 298 298 298 298 298 298 297 297 297 296 296 296 296 296 295 294 293 291 290 290 289 289 288 288 287 287 287 286 286 286 286 286 286 286 286 286 286 286 286 286 286 286 286 286 286 286 285 285 285 285 285 285 285 285 285 285
324 325 325 324 323 323 323 323 324 326 327 327 326 325 326 329 329 325 323 322 320 319 318 314 310 310 308 306 306 304 303 303 303 302 300 300 300 299 298 297 297 297 297 297 297 297 297 297 296 296 296 295 295 295 295 294 293 292 291 290 289 289 289 289 288 288 287 287 286 285 285 286 286 286 286 286 286 286 286 286 286 286 286 286 286 285 285 285 285 285 285 285 285 285 285 284 284
323 324 325 325 324 323 322 322 323 326 328 326 325 324 325 328 328 324 323 322 320 321 319 315 311 309 307 307 305 304 303 302 302 301 300 298 297 296 296 296 296 296 296 296 296 296 296 295 295 295 295 294 294 294 293 292 292 291 290 290 290 289 289 289 288 288 287 287 286 286 285 286 285 286 286 286 285 285 286 286 286 286 285 285 285 285 285 285 285 285 285 285 284 284 284 284 284
323 324 326 328 327 326 327 326 325 327 327 322 322 324 326 326 324 322 322 320 319 320 318 313 310 309 307 306 305 303 303 302 301 300 299 296 295 295 295 295 295 295 295 295 295 295 295 295 295 294 294 293 293 293 292 292 291 291 290 290 290 290 289 289 288 288 288 287 286 286 286 285 285 285 285 285 285 285 285 285 285 285 285 285 285 285 285 285 285 284 284 284 284 284 284 284 284
321 323 326 329 330 330 331 330 328 330 326 318 318 325 328 326 324 323 322 319 317 317 316 312 310 308 307 306 304 303 303 302 301 300 298 297 295 295 295 294 294 294 295 295 295 295 294 294 294 294 293 293 293 293 292 292 291 291 291 291 290 290 289 289 289 289 288 287 287 286 286 286 286 285 285 285 285 285 285 285 285 285 284 284 284 284 284 284 284 284 284 284 284 284 284 284 283
319 321 324 327 329 331 333 332 332 332 326 318 318 326 330 328 325 322 317 315 313 313 314 313 310 309 307 306 304 303 302 301 300 299 298 296 295 295 294 294 294 294 294 295 294 294 294 293 293 293 293 292 292 292 292 292 291 291 291 291 290 289 289 289 289 288 288 287 287 286 286 286 286 285 285 285 285 285 285 284 284 285 284 284 284 284 284 284 284 284 284 284 284 283 283 283 283
320 321 323 326 327 328 330 330 326 325 324 322 321 326 326 322 322 317 311 312 312 311 312 312 310 309 307 305 304 303 302 301 300 300 298 296 295 295 294 294 294 294 294 294 294 294 293 293 293 292 292 292 292 292 291 291 291 291 290 290 289 289 289 289 288 288 287 287 287 287 286 286 286 285 285 285 285 285 285 285 285 285 284 284 284 284 284 284 284 284 284 284 284 283 283 283 283
322 323 324 325 326 325 328 329 323 321 326 326 324 324 322 318 320 317 312 313 311 310 311 310 309 308 306 305 304 302 302 301 300 299 298 296 295 295 294 294 294 294 294 294 294 294 293 293 292 292 292 291 291 291 290 290 290 290 289 289 289 289 289 289 288 287 287 287 287 287 286 286 286 286 285 285 285 285 285 285 285 285 284 284 284 284 284 284 284 284 284 284 283 283 283 283 283
323 325 324 323 326 325 325 328 327 326 329 328 325 325 323 321 322 319 315 314 312 310 310 310 308 307 306 305 304 303 302 301 300 299 298 295 295 295 294 294 294 293 293 294 293 293 293 292 292 292 291 291 291 290 290 290 289 289 289 289 289 288 288 288 287 287 287 287 287 287 286 286 286 286 286 286 285 285 285 285 285 285 284 284 284 284 284 283 283 283 283 283 283 283 283 283 282
320 322 322 323 328 327 325 326 329 330 330 329 327 326 324 323 322 320 317 316 314 311 309 310 309 307 306 305 304 303 302 301 300 299 298 296 295 295 294 294 293 293 293 293 293 293 292 292 292 291 291 290 290 290 289 289 289 289 289 288 288 288 288 287 287 287 287 287 287 287 287 287 286 286 286 286 286 286 285 285 285 285 284 284 284 284 283 283 283 283 283 283 283 282 282 282 282
316 317 320 322 324 325 326 325 326 330 330 328 329 327 326 324 322 322 320 316 314 311 309 309 308 307 306 305 304 303 302 301 300 299 298 296 295 294 294 294 293 293 292 292 293 292 292 291 291 291 290 290 290 289 289 289 289 288 288 288 288 287 287 287 287 287 287 287 287 287 287 287 287 286 286 286 286 286 286 285 285 285 284 284 284 283 283 283 283 283 283 282 282 282 282 282 281
317 318 321 322 321 322 325 324 324 327 328 328 328 328 328 325 321 321 319 315 314 313 310 309 308 307 306 305 304 303 302 301 300 299 298 296 295 294 294 293 293 292 292 292 292 292 292 291 291 290 290 290 289 289 289 288 288 288 288 288 287 287 287 287 287 287 287 287 287 287 287 287 287 286 286 286 286 286 285 285 285 284 284 283 283 283 283 282 282 282 282 282 282 282 282 281 281
319 319 320 321 321 322 325 326 324 323 325 326 327 327 326 323 320 320 318 317 315 313 311 310 308 308 307 305 305 303 302 301 300 299 298 296 294 294 293 293 292 292 291 291 292 292 291 291 291 290 290 289 289 289 288 288 288 288 288 287 287 287 287 287 287 287 287 287 287 287 287 287 286 286 286 286 286 285 285 284 284 284 283 283 283 282 282 282 282 282 282 282 282 281 281 281 281
Wind_Speed
7 7 9 9 9 10 7 2 1 2 2 4 4 3 3 2 1 2 5 5 4 4 4 4 4 3 1 1 5 11 9 9 6 3 3 5 8 8 7 8 9 10 11 8 7 13 12 12 13 12 12 11 11 10 10 9 9 9 9 9 10 10 9 10 9 9 9 9 9 9 9 9 8 8 9 10 10 9 9 9 9 9 10 11 12 13 14 15 14 15 16 17 16 15 13 11 10
8 8 8 9 8 5 2 1 1 2 4 5 4 3 1 1 2 6 8 6 5 3 3 3 3 3 0 1 2 8 10 11 9 7 6 12 13 10 7 9 9 10 11 7 6 12 11 11 12 11 11 10 10 9 9 9 9 9 9 9 9 9 9 9 9 8 8 8 8 8 8 8 8 7 8 8 8 9 8 8 9 9 10 11 11 12 13 14 15 16 18 18 18 17 14 12 10
9 8 7 8 6 3 2 1 1 2 4 4 4 1 1 3 6 7 7 7 5 3 1 1 1 2 2 1 4 7 7 10 10 6 7 9 9 10 6 10 11 10 11 8 7 13 12 10 11 10 10 9 9 9 9 9 8 8 8 9 9 9 8 8 9 8 8 8 8 8 7 7 7 7 8 7 8 8 8 8 9 10 10 11 11 11 13 15 16 17 19 19 19 19 16 13 11
9 7 5 7 2 3 2 1 2 2 4 4 4 2 3 6 7 7 6 7 4 3 0 0 2 2 3 6 5 7 5 6 12 8 5 9 7 6 8 11 10 9 12 8 8 13 11 10 12 10 10 9 9 9 9 8 8 9 8 8 8 8 8 8 8 7 7 7 7 7 7 6 7 7 7 6 7 8 7 8 8 10 11 12 11 11 14 16 17 18 18 19 20 20 17 14 11
10 8 4 5 1 0 1 2 1 4 3 1 4 3 5 6 6 7 6 6 3 4 3 2 1 1 5 7 4 3 4 1 11 15 6 7 8 6 8 8 8 9 12 9 10 13 10 10 11 10 10 10 9 9 9 8 8 8 8 8 8 8 8 8 8 7 6 6 7 7 7 6 7 7 6 6 6 7 7 7 8 10 11 12 11 12 14 15 17 18 18 18 19 19 18 15 13
11 10 5 4 1 1 1 2 2 6 3 2 5 4 6 6 6 7 6 5 5 4 2 3 2 4 6 5 5 5 5 2 6 12 8 6 8 8 8 7 7 11 11 9 12 13 11 10 11 10 10 10 10 9 9 8 8 8 8 8 8 7 7 7 7 7 7 5 6 7 6 5 6 6 6 6 6 7 7 7 8 9 10 11 11 12 12 14 17 18 18 18 19 18 17 16 14
8 7 2 3 2 0 2 1 4 5 4 5 6 5 7 6 3 5 6 4 4 4 2 2 3 4 4 4 6 8 10 10 6 7 8 6 7 11 11 10 10 11 10 10 11 11 11 10 9 10 10 10 10 10 9 8 8 8 7 7 7 7 7 6 7 7 7 5 5 6 5 4 4 5 6 6 7 7 7 7 8 8 9 10 11 11 11 14 17 17 17 18 18 17 16 16 15
4 3 1 1 1 1 2 2 6 4 2 5 6 6 7 5 0 2 5 2 3 3 3 2 3 2 3 5 5 6 13 15 10 9 10 8 8 11 14 14 13 11 9 7 7 8 9 9 9 10 11 10 10 9 9 9 8 8 7 7 6 7 7 6 7 7 7 6 5 5 4 4 3 3 5 6 6 6 6 6 7 8 8 9 10 11 12 14 17 17 18 18 18 16 15 15 15
5 2 1 1 1 1 1 4 5 3 4 5 6 6 5 4 2 2 4 4 3 4 5 3 3 1 6 10 7 5 11 12 12 12 12 11 10 9 11 14 14 11 10 7 4 5 5 6 8 12 11 10 10 9 9 9 9 9 8 7 7 6 7 6 6 6 7 6 6 6 5 3 3 3 3 5 6 5 5 6 7 7 8 9 10 10 12 15 17 17 17 18 18 16 14 15 15
3 3 1 1 2 1 1 4 4 4 5 5 6 6 5 3 1 2 3 5 3 4 5 5 4 2 8 9 5 5 8 9 12 13 12 11 11 9 7 12 13 11 10 9 6 3 1 2 8 13 11 10 9 9 8 8 9 9 8 8 7 6 6 5 5 4 5 6 6 6 5 3 3 3 2 3 4 4 5 6 7 8 9 9 9 9 12 15 16 17 17 18 18 16 14 14 14
1 3 1 1 3 2 2 4 5 4 5 5 6 5 4 2 0 1 2 5 2 3 4 3 3 3 4 6 3 7 11 13 13 12 11 9 9 9 7 8 11 11 11 11 9 5 2 1 8 13 11 9 8 8 8 7 8 8 8 8 7 8 7 5 4 3 3 5 6 5 5 4 2 3 3 3 4 4 5 5 7 7 9 8 7 9 12 14 16 16 17 17 18 16 14 13 14
1 2 1 1 4 0 1 5 5 5 6 4 5 4 3 2 1 1 3 4 2 5 6 4 2 3 0 5 3 8 15 16 12 9 8 7 8 8 6 5 8 10 10 11 10 7 6 3 6 12 11 9 8 8 8 7 7 7 8 8 8 8 7 6 5 4 3 4 5 5 5 4 3 3 2 3 3 4 5 5 6 6 7 6 6 9 11 13 15 16 16 17 17 17 14 12 12
1 3 1 3 3 2 3 4 5 5 4 3 6 4 2 3 0 3 2 2 1 4 6 5 2 3 2 5 4 6 13 14 9 7 7 7 7 6 5 6 7 9 10 9 8 9 9 7 4 8 9 9 7 7 7 7 7 7 8 8 8 8 7 7 6 5 4 5 6 5 5 4 3 2 1 2 2 3 5 5 6 5 5 4 5 8 10 12 14 15 16 16 17 17 15 12 11
1 2 1 2 2 2 2 3 5 4 3 3 6 5 2 1 3 5 4 1 4 4 3 4 4 2 2 4 4 4 8 11 9 6 6 6 7 7 8 8 8 8 9 7 7 10 11 10 9 6 6 6 7 8 7 7 6 6 7 7 8 8 8 7 6 5 4 5 6 6 5 4 4 3 1 1 1 2 4 5 5 5 4 3 5 7 10 11 13 15 16 16 17 17 16 13 11
2 2 1 2 2 1 2 2 5 4 2 5 6 6 4 3 2 3 4 4 5 3 3 5 6 2 2 2 2 3 7 10 8 4 5 6 6 9 10 9 8 8 7 6 5 6 9 10 11 10 8 5 4 6 6 6 6 6 6 7 7 8 9 7 6 5 3 4 5 6 6 5 5 4 3 1 1 2 4 5 4 4 3 2 4 6 9 11 13 15 15 16 16 17 17 15 12
1 2 1 2 1 1 0 1 3 3 3 5 4 5 5 3 2 2 3 2 2 2 3 5 6 3 3 3 2 3 7 8 7 4 4 5 6 9 10 7 8 9 8 8 7 5 2 6 10 11 10 9 7 6 5 6 6 6 7 8 7 7 8 8 7 5 3 2 3 4 6 6 5 4 4 3 0 2 5 5 4 4 3 1 3 5 8 11 12 14 14 16 16 17 19 17 14
1 0 0 3 2 2 2 2 3 3 4 4 4 4 4 5 2 2 2 1 1 5 6 4 6 6 5 4 3 4 6 8 8 6 5 5 6 9 10 7 8 10 8 6 6 6 5 2 5 9 11 11 10 9 7 8 7 6 7 8 8 7 7 6 6 6 4 3 2 2 4 5 4 2 2 2 1 3 5 4 3 3 3 1 2 4 7 9 11 12 13 15 17 18 19 18 15
2 0 1 3 1 2 1 2 3 3 6 5 4 1 0 4 3 2 2 2 3 6 7 5 8 8 8 7 6 6 8 10 10 10 10 9 7 9 10 7 8 8 6 6 5 3 4 4 3 5 10 12 11 10 8 6 6 6 6 7 8 8 7 6 6 6 4 4 3 2 3 3 2 2 3 1 2 4 4 3 3 3 2 2 1 3 5 7 9 11 12 14 16 17 17 18 17
1 1 2 2 2 2 4 6 5 3 6 6 5 3 3 3 2 1 0 4 5 5 6 6 7 7 8 8 8 8 10 12 12 13 13 12 11 10 9 8 8 7 6 6 6 5 2 2 3 2 5 10 10 8 7 3 3 3 3 5 5 6 7 6 6 6 5 5 4 2 2 2 2 3 4 3 2 3 3 2 2 2 1 2 1 3 4 5 7 10 11 13 15 14 13 14 15
0 1 2 2 2 4 6 7 6 6 5 5 5 3 2 2 2 1 2 3 4 3 3 5 7 6 6 7 8 9 10 12 13 13 13 12 11 10 9 9 9 8 8 6 6 7 5 1 2 2 4 9 8 6 6 3 1 1 2 4 4 4 5 6 5 5 5 6 6 4 3 3 5 5 4 3 3 3 2 2 2 2 1 1 1 2 3 5 6 9 10 12 12 12 11 10 10
1 1 2 3 2 3 6 6 6 6 5 3 5 3 1 2 3 1 2 3 1 3 4 3 6 6 5 6 6 8 9 11 12 12 13 12 11 10 9 9 8 8 7 5 6 7 6 3 1 3 5 9 10 9 8 4 3 3 3 3 3 4 5 5 5 6 4 4 4 5 5 5 5 3 2 3 3 4 2 2 3 3 1 1 1 2 2 4 5 7 9 9 8 9 10 10 9
1 2 3 4 4 3 5 6 6 4 3 3 3 1 1 2 1 2 3 3 1 3 4 5 6 6 5 5 6 8 9 10 11 11 11 11 11 10 9 8 8 8 8 7 7 7 7 4 4 2 4 10 12 11 8 6 6 5 4 5 4 4 4 5 4 3 3 1 2 1 4 3 1 1 2 1 1 2 2 2 1 1 2 0 1 1 2 2 4 6 6 5 4 7 10 9 8
0 1 4 4 4 2 4 4 3 3 3 2 1 2 2 2 3 3 2 1 4 4 4 5 6 6 6 6 7 7 7 8 9 9 9 10 10 10 9 9 9 8 8 8 8 8 8 7 10 8 1 10 11 9 7 7 7 6 7 8 8 9 7 7 6 4 4 4 3 2 1 2 2 2 0 1 1 3 3 2 0 1 1 1 1 2 4 1 3 4 3 3 5 7 8 8 9
1 1 4 3 4 2 3 4 2 1 1 1 2 3 3 3 3 2 3 5 6 5 5 6 7 7 7 7 6 6 7 7 8 8 8 8 9 9 9 9 9 8 8 9 8 8 9 9 10 7 4 11 10 8 8 8 8 8 10 9 9 9 8 8 7 7 6 5 4 3 3 3 3 3 2 2 1 2 3 4 5 4 3 2 2 3 1 1 1 1 2 4 5 7 7 8 9
1 1 3 2 1 0 4 4 3 2 2 2 1 1 5 5 1 0 5 8 6 6 6 6 7 6 6 6 5 6 7 7 6 7 7 8 8 9 10 9 9 9 9 9 8 9 10 8 6 6 6 8 9 9 10 10 10 11 11 10 10 9 8 9 8 7 6 6 5 4 4 4 4 3 3 3 4 2 5 6 8 7 5 5 4 3 2 1 2 1 1 2 4 6 4 4 5
2 3 2 0 2 3 5 5 5 5 3 3 3 5 7 4 2 1 5 9 6 6 6 5 6 5 5 5 5 6 6 6 6 6 6 7 9 10 10 10 9 9 8 9 9 10 11 7 5 7 6 8 13 13 12 13 13 12 12 11 11 9 9 9 8 8 8 7 6 5 5 5 5 4 4 5 4 5 7 6 7 6 5 4 3 2 2 2 4 3 2 3 2 4 2 2 3
2 3 4 4 5 4 5 5 6 5 4 5 5 6 4 3 2 2 4 8 7 7 6 5 5 5 5 4 4 6 7 6 6 6 7 7 9 10 10 9 9 8 7 10 11 10 9 6 7 8 9 12 15 14 13 13 12 12 13 13 12 12 12 11 11 12 11 10 10 8 7 7 7 7 7 7 6 7 8 7 6 6 5 3 2 1 1 1 3 4 4 4 2 2 3 2 1
1 2 5 7 7 6 5 6 5 4 3 6 6 6 2 4 1 4 7 8 7 7 7 6 5 5 5 5 4 5 7 7 6 7 8 8 8 9 9 8 8 7 8 11 11 9 8 8 9 9 10 12 14 15 16 15 15 15 15 15 15 15 14 13 15 15 14 15 14 13 11 11 10 10 10 9 8 8 8 8 8 7 7 6 4 3 3 4 3 4 4 4 3 3 5 4 2
1 1 5 6 6 7 9 8 5 4 2 4 4 3 5 6 3 5 9 8 7 7 7 6 5 5 5 5 4 5 6 7 8 8 8 8 8 8 7 7 6 8 9 9 10 10 9 10 10 11 11 11 14 17 18 19 19 18 18 18 17 17 15 14 14 14 14 15 15 15 14 14 14 13 12 12 11 10 9 9 9 9 9 8 8 9 7 6 4 4 5 5 3 1 2 2 2
2 3 3 4 5 5 8 7 5 5 3 4 5 1 5 5 5 7 8 7 7 7 6 6 5 5 5 4 4 5 5 6 8 8 7 7 6 7 6 5 6 7 8 10 11 10 11 13 13 15 13 12 16 17 19 21 21 19 19 19 18 17 16 15 14 13 13 13 13 13 14 14 15 15 14 13 13 12 10 9 9 9 9 8 10 10 8 6 6 6 8 7 5 4 3 3 3
2 3 2 2 3 3 2 6 7 5 2 4 5 2 4 3 6 7 7 7 7 7 6 6 6 5 4 4 5 5 5 6 8 7 6 6 5 5 4 5 6 8 10 11 11 9 11 14 15 17 16 17 19 21 21 20 19 19 19 18 18 18 18 17 17 15 14 14 13 13 13 13 13 13 13 12 13 13 12 12 11 10 8 8 9 9 7 7 8 8 8 7 7 8 7 7 7
3 2 2 2 3 2 2 5 7 4 1 4 5 2 3 3 6 7 7 7 7 6 7 7 6 6 5 5 5 5 5 7 8 7 6 6 5 5 4 6 8 10 11 12 11 10 12 14 16 17 19 20 20 21 22 21 19 20 20 20 20 20 20 20 19 18 18 18 18 18 17 17 16 16 16 16 17 18 18 19 19 17 15 13 12 11 12 14 14 13 12 11 12 12 12 11 10
3 4 3 3 4 4 3 3 4 3 3 5 5 3 2 3 6 7 7 8 8 6 7 8 7 7 6 5 5 5 6 7 8 8 7 6 6 5 4 7 9 10 11 11 11 11 13 15 16 17 18 21 21 21 23 23 23 22 21 21 22 22 22 23 23 22 23 23 23 24 23 23 23 22 21 21 22 22 22 22 21 20 20 19 18 17 18 19 18 18 18 17 15 14 14 13 11
3 4 3 5 5 5 2 1 3 4 4 5 6 6 5 3 7 8 8 9 9 7 7 8 7 6 6 6 5 6 6 6 7 9 8 6 7 6 6 8 10 10 10 12 12 13 15 17 19 18 19 21 22 22 23 24 24 23 23 24 24 24 25 25 25 24 24 24 24 24 24 24 24 23 22 21 22 22 21 20 19 18 18 18 18 18 18 19 20 19 18 18 18 18 18 17 15
3 2 3 4 4 5 4 1 3 6 4 5 6 7 9 6 8 8 9 10 10 9 8 8 8 7 6 6 6 6 7 6 7 10 9 7 8 7 7 9 10 10 10 12 13 14 17 18 19 20 20 21 23 24 24 24 25 25 26 26 26 26 26 25 24 24 23 22 22 21 20 20 20 20 20 19 20 20 20 20 19 18 17 17 17 17 17 18 19 20 18 18 21 23 24 21 16
6 3 1 3 3 4 3 2 4 5 3 5 7 6 8 7 7 9 9 9 9 9 8 7 7 7 7 6 6 6 6 6 9 11 9 8 8 7 8 9 10 10 10 12 13 13 16 17 19 19 19 20 22 23 23 24 25 25 26 26 26 25 24 24 23 23 22 21 21 19 19 19 19 19 19 19 19 20 21 21 21 20 19 19 19 20 19 19 19 19 19 19 22 26 27 25 19
6 3 3 5 3 5 5 1 4 2 2 6 6 6 9 8 6 9 9 8 8 9 8 8 8 8 7 7 7 7 6 7 11 12 9 9 9 8 9 9 10 10 9 11 13 14 15 16 18 18 15 15 18 20 21 22 23 24 25 25 25 25 24 24 24 24 23 23 22 21 21 20 20 21 21 22 22 23 24 25 25 25 24 24 24 23 21 19 18 18 18 19 21 25 29 29 24
6 3 4 5 3 6 5 2 4 2 1 4 6 7 10 9 7 7 10 9 10 11 11 10 10 8 7 8 8 7 6 7 10 11 10 10 9 9 10 10 10 9 10 12 13 15 15 16 17 16 13 13 15 17 18 19 20 22 24 25 25 25 25 26 26 25 25 25 24 24 24 23 23 24 25 25 26 27 27 28 28 28 27 27 27 25 23 21 19 18 18 19 19 22 26 29 28
5 3 3 4 4 5 3 2 3 2 1 3 5 7 8 9 8 6 11 12 11 13 13 11 11 10 8 8 9 8 8 7 8 9 11 12 10 10 10 10 10 10 11 13 13 13 14 14 15 14 14 15 16 16 17 19 20 22 24 25 26 27 27 27 28 27 27 28 28 27 27 27 27 27 27 26 27 27 27 27 27 27 27 26 26 26 25 24 23 21 20 20 19 20 21 25 28
3 3 3 4 4 4 3 1 1 2 2 4 5 7 8 8 9 8 12 12 7 6 6 5 6 9 9 8 8 9 9 9 8 8 11 13 12 11 12 11 12 12 12 12 12 11 12 12 13 14 14 16 16 16 18 21 22 24 26 27 29 30 29 29 30 29 29 30 30 29 29 28 28 27 27 26 26 26 26 26 26 26 26 26 26 27 26 25 25 23 21 21 21 21 20 21 24
4 6 6 5 5 6 6 2 3 3 3 5 4 6 7 8 10 12 8 6 3 2 3 3 2 5 8 8 8 8 9 10 10 9 10 14 14 13 13 13 13 13 12 12 12 11 12 12 12 14 15 17 18 19 21 24 26 29 30 30 30 30 28 28 29 29 29 30 30 29 29 27 27 27 27 26 26 26 26 26 25 26 26 25 26 26 26 25 24 24 22 21 21 21 19 19 20
5 7 9 9 7 7 6 2 1 2 4 3 2 3 5 4 8 9 3 4 4 4 5 5 3 4 6 7 7 8 8 9 9 10 11 14 16 15 14 14 14 14 14 13 13 12 14 14 14 15 18 19 21 23 25 27 29 30 29 28 26 26 25 24 26 27 28 29 29 28 28 26 26 26 26 26 26 25 25 25 24 25 25 24 24 24 24 24 23 23 22 21 20 18 18 19 20
4 4 5 9 8 5 5 4 2 2 3 1 3 2 5 5 6 6 4 6 8 6 7 8 7 6 6 7 7 7 8 8 8 9 12 14 16 17 15 15 15 15 15 15 14 15 16 17 18 19 21 22 23 25 25 25 25 23 22 23 24 27 27 24 24 26 27 28 28 28 27 26 25 25 25 25 24 24 24 24 23 23 24 23 23 23 23 23 22 21 20 21 20 18 18 19 18
3 4 3 3 4 3 3 3 3 3 3 2 3 3 5 8 8 7 6 7 9 9 10 9 9 10 9 8 8 8 8 8 8 8 10 13 17 18 17 16 16 17 17 16 16 17 18 19 21 23 25 24 24 22 19 18 18 19 22 25 26 26 28 26 25 26 27 27 28 27 26 25 24 24 24 23 23 23 22 22 22 22 22 22 21 22 22 21 20 20 19 19 19 19 19 17 15
2 1 3 4 2 1 1 2 3 3 4 3 4 4 4 8 5 6 8 8 10 12 13 12 11 12 11 11 10 10 8 8 9 8 10 14 18 19 19 18 17 18 18 17 18 19 20 21 22 24 25 24 22 19 17 16 18 22 26 29 28 27 27 27 26 26 26 27 27 26 25 24 23 22 22 22 21 20 20 20 20 20 20 20 20 20 20 19 19 19 19 18 18 19 18 16 15
3 3 5 5 3 3 1 1 1 2 4 6 5 6 4 7 4 5 6 7 10 12 11 12 12 11 11 11 11 11 10 8 8 9 12 15 18 20 20 19 18 19 19 18 19 20 21 22 23 25 24 22 20 18 18 19 22 26 29 31 31 29 27 27 26 25 24 25 25 25 24 23 21 21 21 20 19 19 18 18 18 19 19 18 18 18 18 18 18 18 18 18 17 17 17 16 15
5 4 5 4 1 2 1 1 1 1 6 6 9 10 6 6 3 6 6 6 9 9 7 8 10 11 11 10 10 11 11 9 8 9 13 16 18 20 21 20 19 19 19 19 20 21 22 23 24 24 22 21 20 19 21 24 26 29 30 31 31 30 28 27 26 24 23 23 24 23 22 21 20 19 18 18 18 17 17 17 17 17 17 17 17 17 17 17 17 16 16 16 16 15 15 15 14
4 4 4 3 1 3 2 1 2 2 7 4 9 13 10 7 5 3 4 4 4 6 6 10 11 12 11 9 10 10 10 10 10 9 11 15 17 19 21 20 20 21 20 20 21 22 23 23 24 24 22 21 21 22 25 27 28 29 29 29 30 29 28 28 26 25 23 23 23 22 21 20 19 18 17 16 16 15 15 15 15 15 15 15 15 15 15 15 15 15 14 15 14 13 13 13 13
2 5 5 3 0 1 1 2 3 5 7 3 3 8 9 9 7 6 7 2 2 3 5 12 13 12 11 10 10 9 9 9 10 10 10 12 14 18 20 21 22 22 21 22 22 23 23 23 24 24 23 23 24 25 26 27 28 28 28 28 28 28 27 27 26 25 23 22 22 21 21 19 18 17 15 15 15 14 13 13 13 14 14 14 15 14 14 13 13 14 13 13 13 12 11 12 12
5 6 5 5 3 2 4 4 3 5 5 3 2 2 3 5 4 10 13 4 3 5 2 10 12 13 12 12 11 9 9 9 9 10 9 10 15 18 20 22 23 23 23 23 24 24 24 24 25 25 25 24 25 26 27 27 28 27 27 27 27 27 27 26 25 24 22 22 22 21 20 18 17 15 14 14 13 12 12 13 13 13 14 14 14 14 14 13 12 13 12 12 13 12 11 11 11
7 6 5 5 5 3 4 4 4 3 2 2 2 1 3 2 2 5 5 2 4 6 3 7 9 10 10 10 10 10 10 10 8 9 9 11 17 20 20 22 23 23 24 25 25 25 25 25 25 26 26 26 26 26 27 28 27 27 27 27 27 28 28 26 25 24 23 23 22 21 19 17 16 15 14 13 12 12 12 12 12 13 13 13 13 13 13 12 12 12 12 12 12 11 11 11 11
5 4 4 6 4 4 3 1 2 1 2 2 2 3 4 3 2 2 2 4 4 4 3 8 8 9 10 9 10 10 10 9 9 9 9 12 18 20 21 23 23 24 25 25 25 25 26 26 26 27 27 27 27 27 28 28 28 27 27 28 28 28 27 27 26 25 24 23 21 19 18 16 15 14 13 12 11 10 11 11 11 11 11 11 11 11 11 11 10 10 10 10 10 10 10 10 9
3 4 6 4 2 3 3 2 2 3 3 4 4 4 4 2 3 3 5 3 4 1 1 6 8 9 11 9 9 10 10 10 9 9 9 13 18 20 21 23 24 25 25 25 26 26 27 28 28 29 28 28 28 28 28 28 28 29 28 28 27 27 27 26 26 25 24 22 20 18 17 16 14 13 12 11 10 10 10 9 9 9 9 9 9 9 9 8 8 8 8 8 8 8 8 7 7
5 4 5 2 4 2 1 1 2 1 6 4 5 8 5 3 5 3 7 4 4 5 6 6 7 9 10 9 10 10 10 10 9 9 10 13 18 19 21 23 24 25 26 26 26 27 27 29 30 31 30 29 29 29 29 29 29 30 28 28 27 27 26 26 25 25 23 21 20 18 16 15 13 12 10 10 9 8 8 7 6 6 7 7 7 6 7 6 6 6 6 6 7 6 6 6 5
5 2 2 3 1 1 3 2 3 3 6 5 4 8 7 7 6 4 7 9 9 8 8 8 10 11 10 9 10 11 11 10 9 10 10 12 17 20 22 23 24 25 26 26 27 27 28 29 30 31 31 30 30 29 29 29 29 29 28 28 27 27 26 25 25 24 22 21 19 17 15 14 12 11 10 9 8 7 6 5 5 5 5 5 5 5 5 5 5 5 5 5 5 5 5 5 5
2 3 3 1 2 3 4 3 2 3 4 6 5 5 5 7 8 9 12 14 13 11 10 11 13 13 11 10 11 11 12 12 11 11 10 12 18 21 23 25 26 26 27 27 27 28 28 29 30 31 30 30 30 29 29 29 29 29 28 28 27 27 26 25 24 23 21 20 18 16 15 13 12 10 9 8 7 6 6 5 5 5 4 4 4 4 4 4 4 4 4 4 4 4 4 4 4
4 1 2 3 2 1 0 2 2 3 3 4 6 7 4 3 5 12 15 14 13 14 14 13 12 12 12 11 12 12 12 12 12 11 11 13 19 22 23 25 25 26 27 27 28 28 29 30 31 31 31 30 30 29 30 30 29 29 29 29 28 28 27 25 24 22 20 19 17 16 14 12 11 10 9 8 7 7 6 5 5 4 4 4 3 3 3 3 3 3 3 3 4 4 4 5 4
8 7 8 8 6 4 2 5 4 3 4 4 4 9 7 2 0 5 11 12 12 14 14 12 11 13 13 12 13 13 13 13 13 12 11 14 19 22 24 25 26 27 27 28 28 29 29 30 30 31 31 31 31 31 30 30 30 30 30 30 29 28 27 25 23 22 20 19 17 15 14 12 11 10 9 8 8 7 6 5 5 4 4 3 3 3 3 3 3 3 3 4 4 4 5 5 5
Wind_Direction
343 337 326 320 318 321 312 269 286 247 157 74 85 100 62 52 123 65 65 74 69 52 14 28 25 356 23 335 64 71 46 41 48 51 102 129 105 86 78 94 129 142 154 163 177 178 166 157 160 157 156 154 154 149 145 140 133 126 118 114 107 103 102 105 102 97 96 96 94 89 85 82 79 78 80 81 84 79 75 73 69 68 66 69 67 64 55 47 47 38 29 22 19 19 20 24 23
351 337 327 314 296 312 314 145 310 241 107 75 69 80 133 126 58 55 55 57 59 55 29 23 20 349 6 218 71 79 51 39 65 84 105 123 96 51 70 102 123 141 154 164 177 178 175 165 165 161 159 158 157 152 147 142 137 131 122 118 109 109 108 109 109 106 104 101 100 95 90 83 76 75 78 82 87 82 73 66 62 62 62 62 58 59 51 40 38 32 26 22 20 19 21 25 27
347 338 343 325 275 220 282 129 231 249 104 95 85 91 225 84 69 66 61 61 52 41 102 93 96 316 304 124 64 76 59 38 51 87 97 88 67 26 58 112 118 136 155 159 168 176 179 175 171 166 165 165 161 158 152 147 144 137 130 125 117 115 114 115 113 111 112 107 106 103 95 83 78 75 76 82 87 87 75 64 59 57 57 55 53 54 44 35 32 30 29 26 23 22 24 27 32
346 349 343 330 288 192 277 211 248 332 76 102 98 87 56 73 81 78 72 71 42 357 341 95 87 323 28 48 43 72 55 43 42 46 87 47 40 37 64 107 111 128 150 149 154 171 182 180 177 172 170 172 167 163 156 153 152 146 140 133 125 121 119 119 117 116 116 112 111 104 95 83 79 74 76 82 85 90 80 65 61 59 57 51 50 47 38 34 31 30 32 28 23 23 27 29 34
342 342 302 299 320 251 294 269 304 48 33 78 109 101 81 84 93 92 90 88 61 15 2 352 45 74 65 39 8 59 342 334 52 37 60 48 54 70 59 86 104 131 147 147 151 170 183 177 183 182 175 176 173 170 163 159 159 153 146 141 131 124 121 121 122 119 115 118 118 108 98 90 86 80 75 76 79 88 82 69 68 68 64 56 49 42 36 33 29 29 30 27 23 24 30 33 35
330 320 270 241 268 348 306 289 56 82 353 8 109 96 82 83 89 102 107 104 91 56 11 341 26 86 84 59 53 63 357 345 60 34 34 39 63 86 69 74 111 135 138 143 157 175 181 171 184 190 181 179 178 177 171 166 165 159 151 145 136 126 121 120 126 125 118 121 123 113 108 102 96 88 76 71 76 85 84 75 71 71 70 67 58 47 41 34 27 28 29 27 24 26 34 38 38
325 318 235 226 264 339 271 284 75 88 351 20 97 95 84 86 105 130 123 123 115 93 68 14 12 81 115 131 83 61 46 53 68 37 31 47 80 92 84 89 114 128 129 139 152 163 169 167 182 195 188 181 180 179 174 171 168 164 158 150 141 128 120 121 126 129 125 125 122 115 113 113 108 90 79 76 79 84 88 82 75 71 71 71 63 55 47 33 28 29 30 28 27 30 36 40 41
303 314 132 287 286 203 287 53 63 73 45 40 67 79 89 90 325 126 103 89 108 95 82 84 6 49 119 106 96 63 60 65 71 57 47 61 83 94 97 100 105 115 125 132 142 142 151 167 186 198 191 180 180 179 174 174 172 171 168 156 149 131 122 124 123 128 131 131 130 123 120 120 119 98 90 88 87 90 93 88 79 77 75 70 64 60 50 36 32 32 30 29 29 34 39 42 44
246 224 37 343 255 221 352 82 80 90 106 87 81 80 88 88 336 23 105 111 87 72 53 18 340 75 104 86 99 85 58 60 65 59 52 61 70 79 104 111 101 107 121 111 125 141 144 171 192 196 187 179 181 180 176 178 177 177 177 161 153 134 123 123 116 127 138 141 143 140 140 130 114 102 97 93 93 98 102 96 86 83 78 73 67 57 44 35 32 30 29 29 31 36 42 44 46
244 198 348 317 269 192 101 107 106 104 102 102 109 106 101 98 329 4 99 118 83 81 60 345 325 82 109 95 99 88 57 55 60 53 49 58 72 62 82 118 111 110 122 110 100 105 143 196 197 192 185 182 181 179 179 182 183 179 178 166 154 139 127 123 114 124 149 157 153 149 151 141 116 104 91 88 97 107 114 101 92 88 77 74 67 46 35 31 27 27 29 30 32 36 41 45 47
313 201 124 333 277 194 182 123 111 119 115 106 102 102 105 94 323 5 82 101 83 110 79 346 351 19 98 97 93 101 70 53 52 48 50 53 77 73 60 111 126 126 134 126 105 80 62 200 195 190 187 183 179 184 187 185 188 182 176 171 160 149 138 132 125 124 157 170 164 164 164 156 137 120 102 96 118 127 128 111 100 95 83 77 59 39 34 29 25 28 29 30 32 36 42 45 47
315 261 109 274 274 251 79 116 126 125 123 141 126 110 118 136 223 178 108 109 131 115 71 7 22 344 58 109 127 107 61 41 41 46 61 57 71 83 68 84 118 129 133 132 125 115 92 69 193 198 197 191 184 190 194 188 190 186 179 177 169 160 150 145 141 139 162 178 178 180 178 173 159 135 116 107 137 147 142 134 119 107 97 87 53 39 37 30 27 31 32 32 32 35 43 47 49
308 312 21 262 285 28 33 95 114 116 137 175 133 121 161 175 203 27 49 121 130 103 65 360 346 350 33 108 121 91 45 24 25 44 66 70 71 78 72 70 89 108 120 133 142 141 125 106 157 204 214 214 213 212 204 195 191 189 188 186 179 166 159 156 150 151 166 187 190 189 188 189 178 162 145 85 116 147 147 146 130 115 110 92 53 41 35 28 30 35 36 36 34 35 41 49 53
312 339 6 282 309 32 47 77 112 131 159 126 111 133 166 94 42 23 350 60 66 62 82 10 356 22 57 103 109 63 21 3 8 41 75 81 77 71 68 69 78 92 109 135 155 156 150 138 140 164 204 227 240 237 227 217 204 196 199 192 188 177 169 167 163 159 160 186 203 204 203 208 209 212 223 65 69 134 153 157 140 127 121 84 48 38 30 27 33 39 39 39 39 37 38 46 55
340 336 306 290 318 32 38 69 141 174 143 108 123 151 136 54 44 48 15 43 68 58 97 47 16 9 19 61 100 20 355 354 4 42 90 101 86 74 73 68 64 69 78 84 107 153 168 163 156 155 167 183 223 242 239 237 228 219 219 205 198 187 181 180 178 174 154 173 199 213 217 226 233 240 256 299 34 135 160 162 153 147 137 77 36 32 29 28 33 37 40 42 44 42 40 42 50
340 332 329 293 259 101 251 77 133 173 109 112 143 150 134 101 48 64 47 34 110 80 58 40 26 37 35 47 75 7 354 3 24 59 107 121 114 95 88 78 64 63 66 63 62 74 127 178 174 168 164 161 174 205 226 238 241 236 230 222 213 201 195 190 186 189 184 178 188 212 220 228 243 258 271 279 241 160 164 161 158 168 166 109 29 30 31 30 33 35 40 44 44 44 43 41 44
318 38 356 260 201 135 198 145 112 124 107 126 154 164 154 133 95 99 134 271 168 96 75 54 48 58 68 82 75 32 23 29 46 75 92 98 128 117 95 87 77 69 66 57 60 77 64 49 171 179 176 167 168 178 199 227 234 234 234 230 223 218 213 202 201 204 212 229 216 218 220 225 240 264 282 278 192 170 174 173 166 178 189 171 42 35 33 31 35 37 40 43 42 42 39 38 41
337 284 237 261 184 107 252 91 88 123 126 134 136 171 198 134 140 112 134 222 181 101 96 96 73 79 94 91 73 55 49 44 53 68 69 58 72 87 78 74 70 66 66 48 26 73 97 66 87 176 188 182 175 168 175 212 223 229 237 233 222 219 223 218 216 218 231 243 241 237 218 213 222 258 265 244 187 182 185 185 171 175 193 185 76 36 28 30 39 41 44 45 42 42 36 32 34
322 299 284 307 49 42 2 51 51 49 107 120 105 26 357 107 125 84 208 209 183 121 117 127 99 100 101 82 64 60 55 52 54 59 63 54 54 59 59 61 54 48 44 36 16 6 33 126 124 139 195 190 182 167 159 184 226 247 239 228 225 217 219 218 215 226 239 233 234 235 199 179 202 243 242 216 197 188 188 200 185 170 181 188 82 26 21 29 46 51 51 51 47 48 43 32 31
106 351 345 28 68 63 34 56 55 26 57 104 109 62 352 131 130 170 259 250 199 129 117 143 125 116 101 80 62 60 60 57 54 55 59 54 53 53 49 49 42 42 33 22 24 7 349 319 165 151 192 184 175 158 143 150 215 251 219 209 219 210 206 202 199 222 242 236 225 208 186 202 211 212 216 219 225 225 228 232 207 187 182 159 71 34 41 39 53 58 56 61 56 50 53 51 40
345 39 50 36 9 69 58 56 56 37 28 41 88 89 274 124 97 162 266 284 213 78 39 62 108 106 95 86 68 62 62 59 53 51 55 50 50 48 46 48 38 36 31 22 27 4 343 349 161 189 196 174 165 156 141 147 166 162 173 183 200 215 213 188 184 206 232 252 230 212 216 227 222 218 237 233 228 235 239 230 209 202 208 121 83 53 49 44 52 49 52 74 70 43 47 53 46
326 44 75 48 355 51 82 67 49 34 22 21 71 94 318 86 99 209 231 263 142 82 47 49 74 84 82 81 74 68 62 58 53 48 50 48 45 43 40 42 36 32 26 22 25 3 344 23 68 12 214 173 162 156 145 147 147 130 141 149 137 145 157 133 134 172 179 141 75 215 231 222 178 41 276 241 198 212 194 204 232 214 226 246 114 163 288 1 48 34 48 80 54 31 41 44 40
354 52 80 50 6 41 84 83 60 17 19 1 358 352 7 12 288 242 194 110 105 94 79 79 78 87 89 79 72 68 60 59 56 51 51 48 44 42 38 35 32 29 28 22 18 6 1 47 52 12 227 158 148 152 148 142 144 137 144 147 128 121 124 119 112 109 128 143 118 96 97 77 77 71 86 173 191 204 192 198 40 60 221 245 163 207 273 320 59 23 60 70 22 24 31 31 28
251 216 106 55 359 28 73 99 110 49 345 326 28 16 315 282 289 288 110 106 111 108 99 103 101 100 95 82 75 74 67 64 62 62 60 54 51 48 41 36 32 29 31 27 23 21 24 53 53 28 122 130 124 142 149 148 154 152 150 149 134 128 128 119 115 115 119 135 143 131 107 88 79 61 54 53 336 218 173 154 134 128 144 157 179 191 271 160 177 325 97 78 49 41 24 23 20
285 1 92 75 327 176 116 130 159 176 234 269 37 311 260 244 246 330 132 125 123 122 117 114 114 106 95 85 84 87 79 66 59 64 63 56 54 53 45 36 33 32 32 32 36 41 34 42 64 78 119 135 143 154 156 159 162 155 151 147 135 132 131 120 117 120 114 116 117 116 121 118 108 86 71 56 17 57 125 136 132 128 129 133 153 163 172 223 258 245 114 60 75 79 55 46 29
24 16 359 351 235 213 163 171 198 194 205 200 203 241 246 221 101 73 132 130 131 130 130 130 129 116 104 101 94 95 92 78 61 60 66 60 48 46 45 38 34 34 36 41 46 42 33 38 78 86 100 139 156 159 153 151 153 151 146 139 134 129 122 118 118 112 104 104 98 94 101 105 108 106 96 88 72 94 114 120 120 121 127 130 127 135 185 258 281 267 294 337 103 124 131 121 79
338 359 319 284 261 248 179 197 217 187 193 187 197 249 242 121 127 219 136 132 141 136 139 148 137 126 124 120 107 103 99 90 76 69 67 60 48 41 40 40 38 39 49 49 45 38 40 64 83 85 101 126 146 149 141 138 139 140 135 129 127 122 116 112 108 101 96 94 90 91 93 93 101 107 103 102 109 116 116 114 111 111 109 95 69 56 38 328 301 296 308 308 261 220 273 283 120
337 359 300 269 246 243 205 218 221 165 183 189 195 257 225 109 210 205 141 143 154 143 145 158 146 132 131 125 122 108 95 87 81 73 65 59 53 45 41 43 46 51 55 45 42 48 63 84 89 94 106 121 135 134 128 125 122 124 126 123 120 117 115 111 104 100 99 97 94 94 94 96 97 100 104 107 114 115 107 103 102 98 89 74 58 49 44 39 14 349 341 319 308 289 278 284 264
326 290 281 282 255 238 216 208 191 156 176 175 164 275 240 191 191 129 132 151 159 151 149 157 151 137 136 129 121 99 87 83 76 67 64 66 60 55 48 50 60 61 59 52 52 65 83 94 99 105 111 124 128 126 124 120 116 118 120 119 119 119 119 114 107 106 107 105 102 98 97 97 94 93 97 102 106 106 103 101 99 95 88 82 75 68 69 79 73 55 44 23 8 1 280 292 302
290 241 229 293 291 254 205 174 142 142 158 163 141 288 257 194 142 119 134 157 159 158 156 160 155 143 147 136 120 102 89 84 80 71 68 70 62 59 55 61 79 75 71 73 68 68 88 101 105 108 117 131 130 127 126 121 118 119 117 116 118 120 119 114 109 108 110 111 110 106 104 103 100 99 101 103 105 106 110 109 103 102 99 102 96 83 83 90 93 93 74 46 30 46 32 358 344
276 282 199 211 277 283 168 137 144 154 179 175 147 240 273 135 130 141 153 165 166 167 166 166 159 150 149 136 133 121 102 95 94 90 84 82 73 66 67 79 90 89 85 83 76 72 90 102 106 111 117 124 127 127 125 123 122 120 117 116 117 116 112 109 105 104 105 107 108 107 106 104 102 103 103 104 103 99 98 93 86 88 95 109 109 100 93 81 77 87 85 63 41 43 40 28 16
193 254 271 214 199 228 167 150 170 169 215 187 159 228 256 150 152 160 159 172 180 180 170 166 164 159 155 153 155 138 123 122 115 107 100 97 88 76 88 100 99 100 95 86 84 89 99 102 107 114 117 117 121 123 123 124 123 119 115 115 115 112 110 107 105 104 104 103 102 101 99 98 95 96 98 97 94 88 84 81 76 74 74 80 86 84 78 74 72 72 70 60 51 44 35 29 20
192 185 251 251 207 210 171 181 208 155 131 180 192 249 279 148 161 164 168 181 191 195 175 169 173 165 160 165 160 141 137 141 129 117 110 107 97 93 108 110 106 106 100 93 95 103 110 111 113 118 118 116 118 119 119 119 117 115 114 114 112 110 109 106 105 105 104 102 100 99 97 96 94 91 91 91 89 85 81 79 77 75 75 75 75 73 68 63 60 58 53 44 42 41 29 19 10
222 182 220 252 235 227 193 198 228 172 167 204 208 233 264 197 163 173 183 184 189 200 189 172 169 169 168 163 158 155 154 154 138 123 118 113 104 104 110 111 112 110 103 101 103 110 116 114 114 118 118 116 117 117 116 114 114 115 114 112 111 108 106 104 104 103 101 100 99 98 98 98 96 93 90 90 89 86 83 81 80 80 81 80 78 75 71 65 58 55 52 42 38 40 34 20 12
264 214 209 266 260 241 233 182 176 182 202 235 209 219 247 218 172 182 193 190 191 200 195 174 167 171 169 163 167 166 155 145 129 124 123 119 111 109 111 114 115 110 112 110 105 109 111 107 107 110 112 113 114 114 114 113 114 114 112 109 108 106 104 103 102 101 98 98 97 97 99 98 97 97 94 93 92 89 87 84 82 80 80 81 78 76 75 74 67 59 54 47 45 45 39 31 27
291 307 268 294 304 269 265 108 165 191 205 235 227 232 252 233 188 187 192 195 198 204 198 176 169 171 168 169 170 165 152 130 123 126 128 125 122 122 120 122 117 110 121 119 109 110 109 106 106 104 105 110 113 113 113 115 114 111 108 106 104 102 103 103 100 100 98 97 97 96 98 97 97 97 96 95 93 91 88 85 83 81 79 79 76 73 72 74 74 65 53 43 44 46 41 37 35
283 310 300 285 285 274 277 141 169 200 215 235 243 253 263 260 218 191 184 192 201 209 205 187 177 173 172 173 166 159 144 124 125 129 131 130 131 134 129 129 122 113 125 125 116 120 119 116 114 107 106 110 112 113 113 115 114 111 108 105 102 100 102 103 100 99 99 98 98 98 98 98 99 99 98 97 94 92 90 87 85 81 79 78 76 76 76 78 79 76 64 47 40 42 39 35 34
265 272 286 281 264 262 271 165 159 122 64 255 267 271 266 267 252 193 168 183 203 205 202 195 187 179 173 170 164 151 126 123 134 136 138 137 136 139 135 131 129 124 133 134 126 128 128 125 122 119 124 127 123 122 120 118 117 116 114 110 108 104 103 104 101 100 101 102 101 100 100 100 101 100 99 98 95 93 90 88 85 81 80 78 78 78 78 80 78 77 72 59 48 44 41 34 35
244 247 274 271 267 274 282 109 136 115 89 266 277 280 271 266 265 208 176 191 206 206 203 196 185 180 177 169 162 148 135 142 150 145 144 143 140 140 140 136 139 142 143 139 130 130 133 131 131 133 136 139 137 135 132 128 124 123 120 116 114 109 103 104 103 103 104 103 101 100 99 99 99 98 97 97 95 93 90 88 85 83 80 78 78 76 74 75 72 72 69 65 59 54 49 38 39
229 225 245 250 255 267 265 144 194 192 209 268 294 293 275 266 266 240 204 195 195 204 199 183 177 177 172 166 160 154 152 156 157 151 147 150 149 146 148 148 146 147 146 141 133 135 141 140 141 143 143 143 143 140 136 132 127 123 119 115 113 108 105 105 105 104 104 103 100 100 99 98 98 97 96 94 93 91 89 87 85 82 80 77 76 73 71 71 69 69 66 64 61 55 53 45 43
229 216 220 241 240 235 241 218 174 199 228 238 277 296 273 247 242 242 216 166 145 145 135 107 103 152 149 149 156 160 162 159 159 157 153 155 156 154 155 156 151 149 151 148 143 144 146 144 146 148 146 144 141 138 135 133 128 122 117 112 109 106 104 104 103 101 101 102 100 99 99 98 98 96 95 93 91 90 87 86 84 81 80 76 75 73 72 71 68 68 65 64 64 57 55 53 49
244 220 212 223 236 246 263 298 55 322 284 220 179 280 272 244 236 236 175 140 180 173 171 177 164 146 148 152 159 162 161 160 158 157 156 157 156 154 156 157 155 155 158 152 146 148 147 143 143 144 142 139 136 134 133 131 127 121 118 116 114 111 105 101 102 102 102 102 101 101 101 100 99 96 95 92 90 89 86 85 83 81 79 76 75 73 72 70 67 67 65 65 67 64 61 58 52
248 255 227 212 226 257 284 316 338 267 275 246 145 216 269 288 275 252 174 191 209 188 197 200 182 182 178 166 168 166 161 158 154 154 157 156 153 153 156 159 160 162 161 153 147 149 146 140 139 138 135 131 129 129 129 127 126 125 126 125 123 118 111 107 108 108 107 106 106 105 103 100 98 95 93 91 89 87 85 84 82 80 79 76 74 72 71 70 68 67 65 66 66 64 62 61 53
232 289 338 169 206 254 267 279 255 243 303 288 171 179 274 279 264 237 181 197 225 213 212 210 196 195 188 178 176 169 165 159 153 157 159 155 156 160 161 160 162 165 162 154 151 151 148 145 143 140 137 134 134 137 139 141 141 142 139 132 125 120 118 117 116 112 111 110 108 106 103 100 98 95 92 90 88 86 85 83 81 79 78 76 74 72 72 70 69 66 63 64 65 62 62 64 62
223 254 43 79 98 354 310 273 259 289 330 267 183 142 266 273 248 197 176 197 230 226 214 210 205 195 186 185 179 167 163 158 155 160 160 157 159 162 161 158 162 165 161 156 154 153 151 149 148 146 143 143 147 152 156 157 155 150 143 134 127 124 123 122 120 117 113 111 108 105 104 102 99 97 94 91 89 88 86 84 82 80 78 77 74 73 73 69 67 65 62 61 61 63 62 62 66
193 131 79 72 72 53 25 279 279 314 279 239 194 157 221 273 249 172 183 214 231 230 216 207 201 190 182 180 174 165 161 158 157 160 160 160 159 159 158 156 158 161 162 160 157 155 153 152 151 150 149 151 155 157 157 155 154 150 142 136 131 129 128 126 123 119 116 113 110 108 106 104 102 100 97 95 93 90 88 85 82 79 77 76 74 72 71 69 66 65 63 62 60 62 63 61 64
150 132 88 82 94 70 52 254 99 305 265 225 190 184 199 273 250 171 194 215 223 228 211 190 184 178 177 173 169 165 161 162 161 157 157 154 151 153 156 156 158 161 163 162 159 156 155 154 154 153 154 157 156 155 154 152 152 148 141 137 134 133 133 130 126 123 121 119 115 112 110 108 106 103 101 99 95 91 88 84 80 78 76 74 72 70 69 68 67 65 63 63 61 60 62 62 61
133 127 107 100 41 44 35 256 140 226 257 218 189 193 195 233 246 199 203 182 205 234 189 168 173 172 171 168 166 164 161 162 159 156 155 149 145 150 154 156 159 161 163 163 160 158 157 157 157 155 154 157 154 152 152 151 149 145 141 139 137 136 136 133 131 129 127 123 119 117 115 112 110 107 104 100 96 93 89 85 82 80 77 73 71 70 68 68 67 64 61 61 61 60 60 60 57
150 130 121 121 175 344 300 216 184 224 252 269 200 192 203 236 246 255 258 186 63 312 171 163 167 167 168 166 163 163 160 161 160 159 160 154 155 157 156 157 161 164 165 165 162 159 158 159 160 156 153 154 154 152 152 151 148 146 143 142 140 139 138 136 133 131 129 127 125 124 121 118 116 112 109 104 100 97 92 89 86 82 79 76 73 70 69 67 65 62 60 58 59 57 55 58 55
182 157 148 159 170 224 239 216 221 241 248 299 348 163 222 277 254 238 246 223 68 2 120 158 162 164 167 163 159 160 161 165 165 163 163 164 165 164 160 161 164 167 168 167 164 163 162 161 161 158 154 155 156 155 154 151 148 147 146 145 145 144 141 138 137 136 137 136 132 128 125 123 121 117 114 109 105 102 96 91 86 80 76 72 68 65 63 61 58 57 55 53 54 52 49 52 49
195 177 170 185 172 195 224 201 223 255 278 310 330 146 185 228 248 231 242 91 62 358 22 135 145 150 150 149 153 158 164 170 169 166 167 167 166 164 162 164 167 169 170 169 167 166 164 163 163 159 156 158 159 157 156 153 150 150 149 148 147 146 144 143 143 144 142 139 135 132 129 128 125 121 117 113 109 104 94 86 79 72 67 63 59 56 55 53 49 49 48 44 45 43 39 44 43
210 173 189 219 197 201 237 208 178 135 344 284 216 229 220 206 228 146 88 66 68 7 33 120 131 139 141 150 160 163 169 172 170 169 167 164 166 166 164 166 169 171 172 172 170 169 167 165 164 162 161 162 162 160 158 155 153 152 151 151 150 150 150 148 147 146 143 140 137 134 132 130 127 123 119 114 108 96 85 77 69 64 59 55 53 49 46 44 41 42 42 40 40 36 29 33 35
179 165 201 211 142 177 228 285 61 99 275 258 180 241 286 286 262 167 134 111 105 76 205 144 144 147 151 163 170 168 172 173 171 170 166 163 165 167 167 168 170 172 173 174 173 172 170 168 166 164 163 164 164 162 160 157 156 154 154 154 154 155 154 151 148 146 143 140 137 135 134 131 128 125 120 112 102 91 82 76 69 65 60 55 52 48 44 41 38 39 39 37 40 34 23 24 26
137 181 203 122 52 39 158 274 346 165 253 260 184 222 237 200 249 186 148 170 181 202 208 170 159 163 169 175 174 173 171 169 167 164 163 164 166 168 169 171 173 174 175 175 174 173 172 171 169 166 165 166 165 165 163 161 160 158 157 157 158 157 155 152 149 146 143 140 138 137 134 131 129 126 120 112 104 98 92 87 80 73 67 60 54 49 45 41 38 37 33 31 35 28 15 19 17
127 197 229 107 98 242 141 197 256 213 249 278 212 220 221 203 215 178 181 205 204 200 198 186 182 180 182 178 172 174 168 165 168 166 166 168 170 172 171 172 175 175 176 175 173 174 173 172 171 169 169 168 167 167 165 164 163 161 160 160 160 159 156 153 149 146 143 140 138 137 136 134 133 130 124 120 116 114 111 105 98 87 77 69 59 52 46 39 36 36 30 23 23 13 2 8 7
69 347 313 92 142 182 164 194 226 190 241 276 251 232 228 212 193 175 194 209 198 188 190 198 196 186 185 180 175 177 174 173 175 171 172 172 173 175 174 175 176 176 177 176 174 174 173 173 173 171 170 169 169 169 167 166 165 163 162 161 160 159 156 153 150 146 144 141 140 141 142 142 139 136 134 133 132 133 130 122 112 100 87 76 64 54 47 35 29 30 29 19 7 356 351 354 353
178 204 221 192 162 110 156 243 212 185 232 262 268 264 245 204 186 181 191 203 195 185 190 200 198 187 184 182 179 180 178 178 177 173 174 173 173 175 176 177 177 176 177 177 176 176 174 174 174 172 171 171 170 171 169 167 166 166 164 163 161 159 157 154 151 148 146 144 145 148 149 148 146 145 146 147 147 143 137 129 119 109 97 86 71 57 43 29 24 18 9 2 348 340 342 339 336
188 193 194 191 182 156 213 250 210 183 230 229 256 270 256 231 290 180 182 192 191 187 192 196 191 185 185 185 183 182 179 178 179 177 174 172 172 174 175 176 177 177 178 178 178 177 176 176 175 175 174 173 173 172 171 170 169 168 167 165 163 161 159 156 153 150 150 150 152 154 155 155 155 154 154 155 153 146 140 135 125 116 104 88 71 55 34 14 10 1 346 340 332 329 330 326 326